Weather History for KPDK - November, 2011

Change the Weather History Date:

Saturday, November 19, 2011

  Actual Average Record
Temperature  
Mean Temperature 50 °F 52 °F  
Max Temperature 59 °F 62 °F 71 °F (2001)
Min Temperature 41 °F 41 °F 19 °F (2014)
Degree Days  
Heating Degree Days 15 13  
Month to date heating degree days 208  
Since 1 July heating degree days 360  
Moisture  
Dew Point 29 °F    
Average Humidity 46    
Maximum Humidity 56    
Minimum Humidity 37    
Precipitation  
Precipitation 0.00 in 0.13 in 1.41 in (2003)
Month to date precipitation 2.60  
Snow  
Snow 0.00 in - - ()
Month to date snowfall  
Since 1 July snowfall  
Since 1 September snowfall  
Snow Depth -    
Sea Level Pressure  
Sea Level Pressure 30.35 in    
Wind  
Wind Speed 4 mph (East)    
Max Wind Speed 7 mph    
Max Gust Speed -    
Visibility 10 miles    
Events      
T = Trace of Precipitation, MM = Missing Value Source: NWS Daily Summary

Daily Weather History Graph

Daily Weather History Graph

Search for Another Location

Airport or City:

Trip Planner

Search our weather history database for the weather conditions in past years. The results will help you decide how hot, cold, wet, or windy it might be!

Date:

Astronomy

Nov. 19, 2011 Rise Set
Actual Time 7:12 AM EST 5:31 PM EST
Civil Twilight 6:46 AM EST 5:58 PM EST
Nautical Twilight 6:15 AM EST 6:28 PM EST
Astronomical Twilight 5:46 AM EST 6:58 PM EST
Moon 12:49 AM EST (11/19) 1:33 PM EST (11/19)
Length of Visible Light 11h 12m
Length of Day
10h 18m
Last Quarter, 38% of the Moon is Illuminated
Nov 19
Last Quarter
Nov 25
New
Dec 2
First Quarter
Dec 10
Full
Dec 17
Last Quarter

Hourly Weather History & Observations

Time (EST) Temp. Windchill Dew Point Humidity Pressure Visibility Wind Dir Wind Speed Gust Speed Precip Events Conditions
12:53 AM 41.0 °F 39.0 °F 21.0 °F 45% 30.39 in 10.0 mi ENE 3.5 mph - N/A   Overcast
1:53 AM 43.0 °F 40.3 °F 19.9 °F 40% 30.38 in 10.0 mi Variable 4.6 mph - N/A   Overcast
2:53 AM 44.1 °F 41.5 °F 19.9 °F 38% 30.38 in 10.0 mi Variable 4.6 mph - N/A   Overcast
3:09 AM 44.6 °F - 19.4 °F 37% 30.36 in 10.0 mi Calm Calm - N/A   Overcast
3:53 AM 44.1 °F 42.5 °F 19.9 °F 38% 30.36 in 10.0 mi East 3.5 mph - N/A   Overcast
4:01 AM 44.6 °F 41.4 °F 19.4 °F 37% 30.34 in 10.0 mi Variable 5.8 mph - N/A   Overcast
4:19 AM 44.6 °F 43.1 °F 19.4 °F 37% 30.35 in 10.0 mi East 3.5 mph - N/A   Overcast
4:53 AM 43.0 °F 40.3 °F 19.9 °F 40% 30.36 in 10.0 mi ENE 4.6 mph - N/A   Overcast
5:53 AM 43.0 °F 41.3 °F 21.0 °F 42% 30.39 in 10.0 mi East 3.5 mph - N/A   Overcast
6:53 AM 44.1 °F 42.5 °F 21.0 °F 40% 30.41 in 10.0 mi East 3.5 mph - N/A   Overcast
7:53 AM 44.1 °F 41.5 °F 21.9 °F 42% 30.41 in 10.0 mi East 4.6 mph - N/A   Overcast
8:53 AM 44.1 °F 40.1 °F 23.0 °F 43% 30.42 in 10.0 mi East 6.9 mph - N/A   Overcast
9:53 AM 45.0 °F 41.8 °F 23.0 °F 42% 30.43 in 10.0 mi Variable 5.8 mph - N/A   Overcast
10:53 AM 48.0 °F - 24.1 °F 39% 30.42 in 10.0 mi Variable 3.5 mph - N/A   Overcast
11:53 AM 48.9 °F - 30.0 °F 48% 30.40 in 10.0 mi Variable 3.5 mph - N/A   Overcast
12:40 PM 51.8 °F - 35.6 °F 54% 30.35 in 10.0 mi ENE 4.6 mph - N/A   Overcast
12:53 PM 53.1 °F - 35.1 °F 50% 30.36 in 10.0 mi East 5.8 mph - N/A   Overcast
1:14 PM 53.6 °F - 37.4 °F 54% 30.33 in 10.0 mi ENE 4.6 mph - N/A   Overcast
1:53 PM 55.0 °F - 37.0 °F 51% 30.32 in 10.0 mi Variable 5.8 mph - N/A   Mostly Cloudy
2:53 PM 57.9 °F - 37.9 °F 47% 30.30 in 10.0 mi Variable 3.5 mph - N/A   Clear
3:53 PM 59.0 °F - 39.2 °F 48% 30.28 in 10.0 mi ENE 5.8 mph - N/A   Clear
4:53 PM 57.9 °F - 39.9 °F 51% 30.30 in 10.0 mi East 3.5 mph - N/A   Partly Cloudy
5:53 PM 55.9 °F - 39.9 °F 55% 30.31 in 10.0 mi Calm Calm - N/A   Overcast
6:53 PM 53.6 °F - 37.4 °F 54% 30.29 in 10.0 mi ENE 4.6 mph - N/A   Overcast
7:53 PM 53.6 °F - 37.4 °F 54% 30.30 in 10.0 mi East 4.6 mph - N/A   Partly Cloudy
8:53 PM 51.1 °F - 36.0 °F 56% 30.33 in 10.0 mi East 4.6 mph - N/A   Scattered Clouds
9:53 PM 51.8 °F - 35.6 °F 54% 30.31 in 10.0 mi Variable 4.6 mph - N/A   Overcast
10:53 PM 52.0 °F - 35.1 °F 53% 30.32 in 10.0 mi Variable 3.5 mph - N/A   Overcast
11:53 PM 52.0 °F - 35.1 °F 53% 30.32 in 10.0 mi ENE 4.6 mph - N/A   Overcast